Preston, MN

2:52 AM CST on February 20, 2018 (GMT -0600)
Preston

Weather History for KFKA - April, 2013

Change the Weather History Date:

Friday, April 19, 2013

  Actual Average (KRST) Record (KRST)
Temperature  
Mean Temperature 34 °F -  
Max Temperature 36 °F 58 °F 84 °F (1985)
Min Temperature 32 °F 39 °F 20 °F (1988)
Degree Days  
Heating Degree Days 31    
Moisture  
Dew Point 24 °F    
Average Humidity 66    
Maximum Humidity 77    
Minimum Humidity 52    
Precipitation  
Precipitation 0.00 in - - ()
Sea Level Pressure  
Sea Level Pressure 29.63 in    
Wind  
Wind Speed 20 mph (NW)    
Max Wind Speed 26 mph    
Max Gust Speed 40 mph    
Visibility 8 miles    
Events Snow    
Averages and records for this station are not official NWS values.
T = Trace of Precipitation, MM = Missing Value Source: NWS Daily Summary

Daily Weather History Graph

Daily Weather History Graph

Search for Another Location

Airport or City:

Trip Planner

Search our weather history database for the weather conditions in past years. The results will help you decide how hot, cold, wet, or windy it might be!

Date:

Astronomy

Apr. 19, 2013 Rise Set
Actual Time 6:18 AM CDT 7:57 PM CDT
Civil Twilight 5:48 AM CDT 8:27 PM CDT
Nautical Twilight 5:12 AM CDT 9:04 PM CDT
Astronomical Twilight 4:32 AM CDT 9:44 PM CDT
Moon 1:30 PM CDT (4/19) 2:46 AM CDT (4/19)
Length of Visible Light 14h 39m
Length of Day
13h 38m
First Quarter, 62% of the Moon is Illuminated
Apr 19
First Quarter
Apr 25
Full
May 2
Last Quarter
May 9
New
May 17
First Quarter

Hourly Weather History & Observations

Time (CDT) Temp. Windchill Dew Point Humidity Pressure Visibility Wind Dir Wind Speed Gust Speed Precip Events Conditions
12:13 AM 33.8 °F 21.3 °F 27.3 °F 77% 29.44 in 5.0 mi WNW 24.2 mph 29.9 mph N/A   Haze
12:34 AM 33.8 °F 21.3 °F 27.1 °F 77% 29.44 in 7.0 mi NW 24.2 mph 31.1 mph N/A   Overcast
12:54 AM 33.8 °F 21.9 °F 26.6 °F 75% 29.43 in 10.0 mi NW 21.9 mph 27.6 mph N/A   Overcast
1:14 AM 33.8 °F 22.2 °F 26.6 °F 75% 29.43 in 7.0 mi NW 20.7 mph 28.8 mph N/A Snow Light Snow
1:33 AM 33.8 °F 21.9 °F 26.4 °F 74% 29.42 in 10.0 mi NW 21.9 mph 32.2 mph N/A Snow Light Snow
1:53 AM 33.8 °F 22.2 °F 26.2 °F 74% 29.42 in 7.0 mi NW 20.7 mph 29.9 mph N/A Snow Light Snow
2:13 AM 33.4 °F 21.4 °F 26.4 °F 75% 29.43 in 5.0 mi WNW 21.9 mph 25.3 mph N/A Snow Light Snow
2:33 AM 33.4 °F 22.3 °F 26.6 °F 76% 29.43 in 7.0 mi WNW 18.4 mph 28.8 mph N/A Snow Light Snow
2:54 AM 33.3 °F 22.1 °F 26.6 °F 77% 29.43 in 4.0 mi WNW 18.4 mph - N/A Snow Light Snow
3:13 AM 33.1 °F 20.3 °F 26.6 °F 77% 29.43 in 10.0 mi WNW 24.2 mph 28.8 mph N/A   Overcast
3:33 AM 33.1 °F 21.5 °F 26.2 °F 76% 29.43 in 7.0 mi WNW 19.6 mph 25.3 mph N/A Snow Light Snow
3:52 AM 33.1 °F 21.5 °F 26.2 °F 76% 29.43 in 7.0 mi WNW 19.6 mph 26.5 mph N/A Snow Light Snow
4:13 AM 33.1 °F 21.2 °F 26.1 °F 75% 29.44 in 7.0 mi WNW 20.7 mph 29.9 mph N/A Snow Light Snow
4:34 AM 32.9 °F 21.0 °F 26.1 °F 76% 29.45 in 7.0 mi WNW 20.7 mph 26.5 mph N/A   Overcast
4:53 AM 32.9 °F 20.4 °F 25.7 °F 75% 29.45 in 10.0 mi WNW 23.0 mph 28.8 mph N/A Snow Light Snow
5:14 AM 32.9 °F 21.6 °F 25.7 °F 75% 29.45 in 7.0 mi WNW 18.4 mph 27.6 mph N/A Snow Light Snow
5:34 AM 32.9 °F 21.3 °F 25.7 °F 75% 29.45 in 7.0 mi NW 19.6 mph 28.8 mph N/A   Overcast
5:54 AM 32.9 °F 20.7 °F 25.7 °F 75% 29.46 in 10.0 mi NW 21.9 mph 25.3 mph N/A Snow Light Snow
6:13 AM 32.9 °F 21.3 °F 25.5 °F 74% 29.47 in 10.0 mi NW 19.6 mph 31.1 mph N/A Snow Light Snow
6:33 AM 32.9 °F 20.7 °F 25.0 °F 73% 29.48 in 5.0 mi NW 21.9 mph 31.1 mph N/A Snow Light Snow
6:54 AM 32.9 °F 21.3 °F 24.8 °F 72% 29.48 in 10.0 mi NW 19.6 mph 26.5 mph N/A   Overcast
7:14 AM 32.9 °F 21.6 °F 25.5 °F 74% 29.49 in 0.8 mi NW 18.4 mph 23.0 mph N/A Snow Light Snow
7:34 AM 32.9 °F 22.4 °F 25.2 °F 73% 29.50 in 7.0 mi NW 16.1 mph 25.3 mph N/A   Overcast
7:54 AM 33.1 °F 20.9 °F 24.4 °F 71% 29.50 in 10.0 mi NW 21.9 mph 29.9 mph N/A   Overcast
8:14 AM 33.1 °F 21.2 °F 24.1 °F 70% 29.51 in 10.0 mi NW 20.7 mph 28.8 mph N/A   Overcast
8:33 AM 32.9 °F 20.7 °F 23.9 °F 69% 29.51 in 7.0 mi NW 21.9 mph 27.6 mph N/A Snow Light Snow
8:54 AM 32.9 °F 21.6 °F 24.3 °F 71% 29.52 in 5.0 mi NW 18.4 mph 29.9 mph N/A Snow Light Snow
9:14 AM 32.9 °F 20.1 °F 24.3 °F 71% 29.52 in 7.0 mi NW 24.2 mph 31.1 mph N/A Snow Light Snow
9:34 AM 33.1 °F 20.1 °F 23.5 °F 68% 29.53 in 7.0 mi NW 25.3 mph 29.9 mph N/A   Overcast
9:54 AM 33.1 °F 21.2 °F 23.0 °F 66% 29.54 in 7.0 mi NW 20.7 mph 26.5 mph N/A Snow Light Snow
10:33 AM 33.1 °F 20.3 °F 23.7 °F 68% 29.56 in 10.0 mi NW 24.2 mph 29.9 mph N/A   Overcast
10:54 AM 33.6 °F 21.6 °F 22.1 °F 63% 29.57 in 10.0 mi NW 21.9 mph 32.2 mph N/A   Overcast
11:14 AM 33.8 °F 21.6 °F 22.5 °F 63% 29.58 in 10.0 mi NW 23.0 mph 31.1 mph N/A   Overcast
11:34 AM 33.8 °F 20.8 °F 23.0 °F 65% 29.60 in 10.0 mi NW 26.5 mph 33.4 mph N/A   Overcast
11:54 AM 34.0 °F 23.8 °F 22.5 °F 63% 29.60 in 10.0 mi NW 16.1 mph 28.8 mph N/A   Overcast
12:14 PM 34.2 °F 21.5 °F 22.6 °F 63% 29.61 in 3.0 mi NW 25.3 mph 32.2 mph N/A Snow Light Snow
12:33 PM 35.1 °F 24.5 °F 23.9 °F 64% 29.62 in 10.0 mi NW 18.4 mph 26.5 mph N/A   Overcast
12:54 PM 34.7 °F 22.8 °F 24.3 °F 66% 29.63 in 7.0 mi NW 23.0 mph 32.2 mph N/A Snow Light Snow
1:14 PM 34.7 °F 22.5 °F 23.2 °F 63% 29.64 in 10.0 mi NW 24.2 mph 40.3 mph N/A   Overcast
1:34 PM 35.4 °F 24.3 °F 23.2 °F 61% 29.65 in 10.0 mi NW 20.7 mph 33.4 mph N/A   Overcast
1:54 PM 34.7 °F 24.3 °F 23.4 °F 63% 29.65 in 7.0 mi NNW 17.3 mph 31.1 mph N/A Snow Light Snow
2:14 PM 35.6 °F 24.0 °F 23.4 °F 61% 29.67 in 10.0 mi NW 23.0 mph 29.9 mph N/A   Overcast
2:34 PM 35.4 °F 23.2 °F 23.0 °F 61% 29.68 in 10.0 mi NW 25.3 mph 31.1 mph N/A   Overcast
2:54 PM 33.8 °F 21.6 °F 23.4 °F 66% 29.69 in 7.0 mi NW 23.0 mph 31.1 mph N/A Snow Light Snow
3:14 PM 35.6 °F 24.2 °F 21.6 °F 57% 29.70 in 10.0 mi NW 21.9 mph 29.9 mph N/A   Overcast
3:34 PM 35.8 °F 24.8 °F 21.9 °F 57% 29.71 in 10.0 mi NW 20.7 mph 28.8 mph N/A   Overcast
3:54 PM 35.2 °F 23.8 °F 22.1 °F 59% 29.72 in 5.0 mi NW 21.9 mph 28.8 mph N/A Snow Light Snow
4:14 PM 35.6 °F 25.2 °F 22.6 °F 59% 29.73 in 5.0 mi NW 18.4 mph 27.6 mph N/A Snow Light Snow
4:34 PM 35.8 °F 23.9 °F 22.6 °F 59% 29.74 in 7.0 mi NW 24.2 mph 32.2 mph N/A Snow Light Snow
4:54 PM 34.9 °F 23.6 °F 23.4 °F 63% 29.75 in 2.5 mi NW 20.7 mph 31.1 mph N/A Snow Light Snow
5:14 PM 36.5 °F 24.7 °F 22.1 °F 56% 29.77 in 7.0 mi NW 25.3 mph 33.4 mph N/A   Overcast
5:34 PM 36.7 °F 24.9 °F 22.1 °F 56% 29.78 in 10.0 mi NW 25.3 mph 31.1 mph N/A   Overcast
5:54 PM 36.5 °F 26.0 °F 22.1 °F 56% 29.79 in 10.0 mi NW 19.6 mph 25.3 mph N/A   Overcast
6:14 PM 36.3 °F 24.9 °F 20.1 °F 52% 29.80 in 10.0 mi NNW 23.0 mph 33.4 mph N/A   Overcast
6:34 PM 36.1 °F 26.2 °F 20.5 °F 53% 29.81 in 10.0 mi NNW 17.3 mph 25.3 mph N/A   Overcast
6:54 PM 34.7 °F 25.1 °F 23.9 °F 65% 29.82 in 2.5 mi NW 15.0 mph 25.3 mph N/A Snow Light Snow
7:14 PM 35.1 °F 24.8 °F 22.3 °F 60% 29.84 in 10.0 mi NW 17.3 mph 21.9 mph N/A   Overcast
7:34 PM 34.7 °F 25.5 °F 23.0 °F 62% 29.85 in 3.0 mi NNW 13.8 mph 25.3 mph N/A Snow Light Snow
7:54 PM 34.3 °F 27.0 °F 21.9 °F 60% 29.86 in 10.0 mi NNW 9.2 mph - N/A   Mostly Cloudy
8:14 PM 34.9 °F 26.6 °F 21.4 °F 58% 29.87 in 10.0 mi NNW 11.5 mph - N/A   Overcast
8:33 PM 34.3 °F 26.5 °F 22.5 °F 62% 29.88 in 10.0 mi NNW 10.4 mph 17.3 mph N/A Snow Light Snow
8:53 PM 34.2 °F 26.8 °F 22.1 °F 61% 29.89 in 10.0 mi NW 9.2 mph - N/A   Scattered Clouds
9:14 PM 33.8 °F 27.0 °F 22.1 °F 62% 29.91 in 10.0 mi NW 8.1 mph - N/A   Scattered Clouds
9:34 PM 34.3 °F 28.4 °F 21.6 °F 60% 29.92 in 10.0 mi NW 6.9 mph - N/A   Scattered Clouds
9:53 PM 34.0 °F 27.2 °F 21.9 °F 61% 29.93 in 10.0 mi NW 8.1 mph - N/A   Mostly Cloudy
10:14 PM 34.5 °F 27.9 °F 21.4 °F 59% 29.93 in 10.0 mi NW 8.1 mph - N/A   Overcast
10:34 PM 34.7 °F 28.8 °F 21.2 °F 58% 29.94 in 10.0 mi NW 6.9 mph - N/A   Overcast
10:53 PM 34.0 °F 26.0 °F 21.9 °F 61% 29.94 in 10.0 mi NW 10.4 mph - N/A   Overcast
11:14 PM 33.1 °F 25.5 °F 22.8 °F 66% 29.94 in 10.0 mi WNW 9.2 mph - N/A   Mostly Cloudy
11:34 PM 33.8 °F 25.3 °F 24.4 °F 69% 29.95 in 10.0 mi WNW 11.5 mph - N/A   Mostly Cloudy